STARLINK-1973 (47628 NORAD) Tracking and Keplerian Element Data

This shows tracking and keplerian element data for the satellite.

Feedback or suggestion? Click here.




ElementValue
Catalog47628
NameSTARLINK-1973
Epoch Orbit175
Epoch Day101.91668981
Epoch Year2021
RAAN199.6809
Inclination53.0518
Eccentricity0.00013
Argument of Perigee90.5157
Mean Anonmoly267.5649
Mean Motion15.06398227
Decay Rate-0.00037667
L11 47628U 21012J 21101.91668981 -.00037667 00000-0 -25234-2 0 9995
L22 47628 53.0518 199.6809 0001300 90.5157 267.5649 15.06398227 1759

Live tracking and technical data element details for STARLINK-1973 (NORAD 47628). STARLINK-1973 can be tracked NOW for your location showing map with azimuth and elevation plus other details from your city location.

Track the satellite on the map from your city or location and see movement details for azimuth, elevation, latitude, longitude, range, height, and movement on the map or in text.







IsCatalogInMostPopularTable: catalog: 47628, numindb: 17
Update: records affected: 1



GetName: 47628 STARLINK-1973

Hit Count: updated at: Tue, 13 Apr 2021 03:28:40 GMT